This demonstration page uses our WeatherBlox Daily Observations layout. Learn more.

Hourly Observations for April 10, 2017

Temp ( °F °C ) Dew Point ( °F °C ) Humidity (%) Winds ( mph kmh ) Pressure ( in mb ) Visibility ( mi km ) Precip ( " mm )
12:15 am 00:15 Clear 42 5.7 39 4 89 89 WNW 5 7 29.85 1011 10 16.0934 0 0
12:35 am 00:35 Clear 44 6.6 39 3.8 83 83 WNW 10 17 29.85 1011 10 16.0934 0 0
12:55 am 00:55 Clear 44 6.5 38 3.3 80 80 WNW 8 13 29.85 1011 10 16.0934 0 0
1:15 am 01:15 Clear 44 6.5 36 2.2 74 74 WNW 12 19 29.85 1011 10 16.0934 0 0
1:35 am 01:35 Clear 45 7 34 0.9 65 65 WNW 13 20 29.85 1011 10 16.0934 0 0
1:55 am 01:55 Clear 44 6.5 33 0.5 66 66 WNW 9 15 29.88 1012 10 16.0934 0 0
2:15 am 02:15 Clear 43 6.1 33 0.3 67 67 WNW 6 9 29.88 1012 10 16.0934 0 0
2:35 am 02:35 Clear 43 6 32 0.1 66 66 WNW 12 19 29.88 1012 10 16.0934 0 0
2:55 am 02:55 Clear 43 6.1 32 0 65 65 WNW 15 24 29.88 1012 10 16.0934 0 0
3:15 am 03:15 Clear 43 6 32 -0.1 65 65 WNW 10 17 29.88 1012 10 16.0934 0 0
3:35 am 03:35 Clear 43 5.9 31 -0.4 64 64 WNW 13 20 29.88 1012 10 16.0934 0 0
3:55 am 03:55 Clear 42 5.6 31 -0.3 66 66 WNW 15 24 29.88 1012 10 16.0934 0 0
4:15 am 04:15 Clear 42 5.6 31 -0.5 65 65 WNW 15 24 29.91 1013 10 16.0934 0 0
4:35 am 04:35 Clear 41 5.2 31 -0.5 67 67 W 14 22 29.91 1013 10 16.0934 0 0
4:55 am 04:55 Clear 42 5.4 31 -0.8 65 65 W 14 22 29.91 1013 10 16.0934 0 0
5:15 am 05:15 Clear 41 5 31 -0.8 66 66 W 20 31 29.91 1013 10 16.0934 0 0
5:35 am 05:35 Clear 41 5 30 -1 66 66 W 18 30 29.91 1013 10 16.0934 0 0
5:55 am 05:55 Clear 40 4.2 31 -0.7 71 71 W 17 28 29.94 1014 10 16.0934 0 0
6:15 am 06:15 Clear 39 3.9 31 -0.7 72 72 W 17 28 29.94 1014 10 16.0934 0 0
6:35 am 06:35 Clear 38 3.6 31 -0.6 74 74 W 14 22 29.94 1014 10 16.0934 0 0
6:55 am 06:55 Clear 38 3.6 31 -0.6 74 74 W 16 26 29.94 1014 10 16.0934 0 0
7:15 am 07:15 Sunny 38 3.6 31 -0.7 74 74 W 14 22 29.97 1015 10 16.0934 0 0
7:35 am 07:35 Sunny 39 3.8 31 -0.8 72 72 W 12 19 29.97 1015 10 16.0934 0 0
7:55 am 07:55 Partly Cloudy 39 4.1 31 -0.4 73 73 W 12 19 30 1016 10 16.0934 0 0
8:15 am 08:15 Partly Cloudy 41 4.9 32 0 71 71 WNW 17 28 30 1016 10 16.0934 0 0
8:35 am 08:35 Partly Cloudy 42 5.8 34 1 72 72 WNW 23 37 29.97 1015 10 16.0934 0 0
8:55 am 08:55 Mostly Cloudy 43 6.1 34 1.3 72 72 WNW 21 33 29.97 1015 10 16.0934 0 0
9:15 am 09:15 Mostly Cloudy 42 5.8 35 1.7 75 75 NW 30 48 30 1016 10 16.0934 0 0
9:35 am 09:35 Cloudy 41 4.9 34 1.2 77 77 NW 29 46 30.03 1017 10 16.0934 0 0
9:55 am 09:55 Cloudy 40 4.6 33 0.3 74 74 NW 24 39 30.06 1018 10 16.0934 0 0
10:15 am 10:15 Mostly Cloudy 40 4.7 31 -0.4 70 70 NW 30 48 30.09 1019 10 16.0934 0 0
10:35 am 10:35 Mostly Cloudy 42 5.4 32 0.1 69 69 NW 26 43 30.09 1019 10 16.0934 0 0
10:55 am 10:55 Mostly Cloudy 41 5.2 32 -0.1 69 69 NW 22 35 30.12 1020 10 16.0934 0 0
11:15 am 11:15 Cloudy 41 5 30 -0.9 66 66 NNW 23 37 30.15 1021 10 16.0934 0 0
11:35 am 11:35 Cloudy 42 5.8 31 -0.3 65 65 NW 21 33 30.15 1021 10 16.0934 0 0
11:55 am 11:55 Cloudy 42 5.8 30 -0.9 62 62 NW 21 33 30.15 1021 10 16.0934 0 0
12:15 pm 12:15 Cloudy 43 6.1 30 -0.9 61 61 NW 23 37 30.15 1021 10 16.0934 0 0
12:35 pm 12:35 Cloudy 44 6.5 31 -0.5 61 61 NW 22 35 30.18 1022 10 16.0934 0 0
12:55 pm 12:55 Cloudy 44 6.5 31 -0.8 60 60 NW 22 35 30.18 1022 10 16.0934 0 0
1:15 pm 13:15 Cloudy 44 6.5 30 -1 59 59 NW 22 35 30.18 1022 10 16.0934 0 0
1:35 pm 13:35 Cloudy 43 6.1 30 -1.2 60 60 WNW 22 35 30.18 1022 10 16.0934 0 0
1:55 pm 13:55 Cloudy 44 6.5 30 -1 59 59 NW 23 37 30.18 1022 10 16.0934 0 0
2:15 pm 14:15 Cloudy 44 6.8 31 -0.6 60 60 NW 21 33 30.18 1022 10 16.0934 0 0
2:35 pm 14:35 Cloudy 45 7.4 31 -0.5 58 58 NW 18 30 30.15 1021 10 16.0934 0 0
2:55 pm 14:55 Mostly Cloudy 46 8 31 -0.3 56 56 NW 20 31 30.15 1021 10 16.0934 0 0
3:15 pm 15:15 Partly Cloudy 47 8.4 32 -0.2 55 55 NNW 23 37 30.15 1021 10 16.0934 0 0
3:35 pm 15:35 Partly Cloudy 47 8.2 32 -0.2 56 56 NNW 15 24 30.15 1021 10 16.0934 0 0
3:55 pm 15:55 Partly Cloudy 47 8.3 31 -0.3 55 55 NNW 18 30 30.15 1021 10 16.0934 0 0
4:15 pm 16:15 Sunny 48 8.8 32 -0.1 54 54 NNW 14 22 30.15 1021 10 16.0934 0 0
4:35 pm 16:35 Sunny 48 9.1 32 -0.1 53 53 NNW 12 19 30.15 1021 10 16.0934 0 0
4:55 pm 16:55 Partly Cloudy 48 9.1 32 0 53 53 NNW 14 22 30.15 1021 10 16.0934 0 0
5:15 pm 17:15 Partly Cloudy 49 9.3 32 0.1 53 53 NNW 15 24 30.15 1021 10 16.0934 0 0
5:35 pm 17:35 Partly Cloudy 48 9 32 0 54 54 N 13 20 30.15 1021 10 16.0934 0 0
5:55 pm 17:55 Sunny 48 9.1 32 0.1 54 54 NNW 12 19 30.15 1021 10 16.0934 0 0
6:15 pm 18:15 Sunny 49 9.2 32 0.1 53 53 NNW 13 20 30.15 1021 10 16.0934 0 0
6:35 pm 18:35 Sunny 48 9.1 32 0 53 53 NNW 6 9 30.15 1021 10 16.0934 0 0
6:55 pm 18:55 Sunny 48 9 32 -0.1 53 53 NNW 8 13 30.15 1021 10 16.0934 0 0
7:15 pm 19:15 Sunny 48 8.9 32 -0.1 54 54 N 8 13 30.15 1021 10 16.0934 0 0
7:35 pm 19:35 Sunny 47 8.6 32 0 55 55 N 7 11 30.15 1021 10 16.0934 0 0
7:55 pm 19:55 Sunny 46 7.7 32 0 59 59 NNE 6 9 30.15 1021 10 16.0934 0 0
8:15 pm 20:15 Clear 43 5.9 32 0 66 66 NNE 5 7 30.18 1022 10 16.0934 0 0
8:35 pm 20:35 Clear 40 4.6 32 -0.2 71 71 NE 5 7 30.21 1023 10 16.0934 0 0
8:55 pm 20:55 Clear 39 3.9 32 -0.2 75 75 Calm 30.24 1024 10 16.0934 0 0
9:15 pm 21:15 Clear 38 3.1 31 -0.8 76 76 ENE 6 9 30.24 1024 10 16.0934 0 0
9:35 pm 21:35 Clear 37 2.7 31 -0.7 79 79 ENE 5 7 30.27 1025 10 16.0934 0 0
9:55 pm 21:55 Clear 36 2.1 30 -0.9 81 81 ENE 5 7 30.27 1025 10 16.0934 0 0
10:15 pm 22:15 Clear 37 2.6 30 -1 77 77 Calm 30.27 1025 10 16.0934 0 0
10:35 pm 22:35 Clear 36 2.4 30 -1.2 77 77 Calm 30.27 1025 10 16.0934 0 0
10:55 pm 22:55 Clear 35 1.9 29 -1.4 79 79 E 6 9 30.27 1025 10 16.0934 0 0
11:15 pm 23:15 Clear 33 0.6 29 -1.6 85 85 ENE 7 11 30.3 1026 10 16.0934 0 0
11:35 pm 23:35 Clear 35 1.5 30 -1.1 83 83 E 6 9 30.33 1027 10 16.0934 0 0
11:55 pm 23:55 Clear 33 0.7 28 -2 82 82 E 6 9 30.33 1027 10 16.0934 0 0

Powered by AerisWeather